Pagina principale
METAR-TAF:

METAR-TAF

Aeroporti :

Bric della Croce

Torino, Italia

latitudine: 45-02N, longitudine: 007-44E, altezza: 709 m

Osservazione

Il bollettino è stato emesso 1 ora e 3 minuti fa, alle 18:55 UTC
Vento 3 kt da nord
Temperature 12°C
Umidità 94%
Pressione 1017 hPa

METAR: LIMK 241855Z AUTO 35003KT //// 12/11 Q1017

Ora: 21:58 (19:58 UTC)


TAF: mancante

Osservazioni e previsioni meteorologiche di più di 4000 aeroporti (messaggi METAR e TAF).

Le stazioni disponibili sono rappresentate dai dischi gialli e rossi sulla carta.

Puntare il mouse per vedere il nome della stazione.

Clicca sopra per visualizzare le osservazioni e previsioni meteorologiche.

Per cambiare la mappa : fare clic sui pulsanti verdi con una croce nera per ingrandire, il pulsante verde con un trattino per diminuire, o sulla freccia verde per le mappe adiacenti.


METAR-TAF: